#timestamp,LO_Frequency,Hit,StdDev 
1522368015.9,286046998.9,N
1522368035.7,286046998.6,N
1522368055.5,286047002.4,N
1522368075.4,286047000.2,N
1522368095.2,286046999.7,N
1522368115.0,286046999.5,N
1522368115.9,286046999.5,N
1522368135.8,286046997.4,N
1522368155.6,286046994.9,N
1522368175.5,286046993.7,N
1522368195.3,286046993.6,N
1522368215.1,286046999.0,N
1522368235.9,286046999.5,N
1522368255.7,286046999.0,N
1522368275.5,286046997.9,N
1522368295.4,286046997.0,N
1522368315.2,286046999.2,N
1522368335.1,286046999.5,N
1522368336.0,286046999.5,N
1522368355.8,286046996.6,N
1522368375.6,286046999.0,N
1522368395.5,286047000.8,N
1522368415.3,286046996.5,N
1522368435.1,286046995.8,N
1522368455.9,286046997.9,N
1522368475.7,286046994.9,N
1522368495.6,286046995.2,N
1522368515.4,286046995.4,N
1522368535.2,286046994.6,N
1522368555.1,286046994.4,N
1522368556.0,286046994.4,N
1522368575.8,286046992.5,Y
1522368595.7,286046996.4,P
1522368615.5,286046996.0,P
1522368635.3,286046997.7,P
1522368655.2,286046997.7,Y
1522368675.0,286047000.9,P
1522368675.9,286047000.9,N
1522368695.7,286047000.5,N
1522368715.6,286046998.1,N
1522368735.4,286046998.9,N
1522368755.3,286047002.4,N
1522368775.1,286047000.3,N
1522368795.8,286046996.5,N
1522368815.7,286046999.2,N
1522368835.5,286046997.5,N
1522368855.4,286046995.6,N
1522368875.2,286046994.9,N
1522368895.0,286046995.6,N
1522368895.9,286046995.6,N
1522368915.8,286046999.4,N
1522368935.6,286046998.7,N
1522368955.4,286046996.5,N
1522368975.3,286046999.3,N
1522368995.1,286046998.7,N
1522369015.9,286046998.7,N
1522369035.7,286046998.1,N
1522369055.5,286046998.3,N
1522369075.4,286047000.8,N
1522369095.2,286047001.1,N
1522369115.0,286046998.7,N
1522369115.9,286046998.7,N
1522369135.8,286046997.0,N
1522369155.6,286046999.2,N
1522369175.5,286046999.5,N
1522369195.3,286046996.6,N
1522369215.1,286046997.1,N
1522369235.9,286046998.0,N
1522369255.7,286046995.8,N
1522369275.5,286046996.4,N
1522369295.4,286046995.5,N
1522369315.2,286046995.0,N
1522369335.1,286046997.8,N
1522369336.0,286046997.8,N
1522369355.8,286046997.5,N
1522369375.6,286046995.2,N
1522369395.5,286046996.1,N
1522369415.3,286046995.9,N
1522369435.1,286046995.4,N
1522369455.9,286046995.0,Y
1522369475.7,286047000.4,P
1522369495.6,286047002.4,N
1522369515.4,286047000.2,N
1522369535.2,286046999.8,N
1522369555.1,286047000.1,N
1522369556.0,286047000.1,N
1522369575.8,286047001.0,N
1522369595.6,286047000.4,N
1522369615.5,286047002.8,N
1522369635.3,286047001.7,N
1522369655.2,286046999.7,N
1522369675.9,286047002.6,N
1522369695.7,286047002.3,N
1522369715.6,286047002.0,N
1522369735.4,286047002.8,N
1522369755.2,286046998.5,N
1522369775.1,286047001.0,N
1522369776.0,286047001.0,N
1522369795.8,286047000.5,N
1522369815.7,286047002.4,N
1522369835.5,286046998.3,N
1522369855.3,286047002.6,N
1522369875.2,286047003.9,N
1522369895.0,286047003.8,N
1522369895.9,286047003.8,N
1522369915.7,286047001.6,N
1522369935.6,286047000.3,N
1522369955.4,286046998.6,N
1522369975.3,286047000.6,N
1522369995.1,286047000.0,N
1522369996.0,286047000.0,N
1522370015.8,286046998.9,N
1522370035.7,286046999.1,N
1522370055.5,286046998.0,N
1522370075.4,286046993.7,Y
1522370095.2,286046994.1,P
1522370115.0,286046993.8,N
1522370115.9,286046993.8,N
1522370135.8,286046995.6,N
1522370155.6,286046995.7,N
1522370175.4,286046994.9,N
1522370195.3,286046996.8,N
1522370215.1,286046996.7,N
1522370235.9,286046997.2,N
1522370255.7,286046997.3,N
1522370275.5,286046995.4,N
1522370295.4,286046995.9,N
1522370315.2,286046996.8,N
1522370335.0,286046999.0,N
1522370335.9,286046999.0,N
1522370355.8,286046995.4,N
1522370375.6,286046995.3,N
1522370395.5,286046994.9,N
1522370415.3,286046995.1,N
1522370435.1,286046997.1,N
1522370455.9,286046997.2,N
1522370475.7,286046997.9,N
1522370495.5,286046995.0,N
1522370515.4,286046995.1,N
1522370535.2,286046994.0,Y
1522370555.1,286047001.2,P
1522370556.0,286047001.2,N
1522370575.8,286047000.9,N
1522370595.6,286047000.5,N
1522370615.5,286047000.8,N
1522370635.3,286047001.1,N
1522370655.1,286046999.9,N
1522370675.9,286047004.3,N
1522370695.7,286047002.2,N
1522370715.6,286047001.5,N
1522370735.4,286047004.1,N
1522370755.2,286047003.0,N
1522370775.1,286047001.6,N
1522370776.0,286047001.6,N
1522370795.8,286047001.6,N
1522370815.6,286047002.3,N
1522370835.5,286047002.4,N
1522370855.3,286046999.8,N
1522370875.1,286047001.5,N
1522370895.9,286047002.0,N
1522370915.7,286047001.0,N
1522370935.6,286047001.6,N
1522370955.4,286047003.2,N
1522370975.2,286047002.9,N
1522370995.1,286047005.7,Y
1522370996.0,286047005.7,P
1522371015.8,286047003.1,N
1522371035.7,286047001.5,N
1522371055.5,286047002.0,N
1522371075.3,286047000.4,N
1522371095.2,286047000.1,N
1522371115.9,286046999.8,N
1522371135.7,286047000.6,N
1522371155.6,286046998.6,N
1522371175.4,286047002.7,N
1522371195.2,286047001.2,N
1522371215.1,286047000.9,N
1522371216.0,286047000.9,N
1522371235.8,286047001.0,N
1522371255.7,286047000.3,N
1522371275.5,286047001.2,N
1522371295.3,286047000.9,N
1522371315.2,286046999.8,N
1522371335.0,286047000.8,N
1522371335.9,286047000.8,N
1522371355.7,286047001.1,N
1522371375.6,286047000.4,N
1522371395.4,286047000.1,N
1522371415.3,286047001.0,N
1522371435.1,286047001.9,N
1522371436.0,286047001.9,N
1522371455.8,286047003.5,N
1522371475.7,286047003.0,N
1522371495.5,286047001.3,N
1522371515.3,286047001.6,N
1522371535.2,286047002.3,N
1522371555.0,286047001.9,N
1522371555.9,286047001.9,N
1522371575.8,286047001.3,N
1522371595.6,286047003.2,Y
